HULIANWANG DIGUI-46 (65049 NORAD) Tracking and Keplerian Element Data

This shows tracking and keplerian element data for the satellite.

Feedback or suggestion? Click here.




ElementValue
Catalog65049
NameHULIANWANG DIGUI-46
Epoch Orbit1955
Epoch Day354.18930547
Epoch Year2025
RAAN187.6286
Inclination50.0039
Eccentricity5.99E-05
Argument of Perigee116.4779
Mean Anonmoly243.6155
Mean Motion13.29325636
Decay Rate-9.4E-07
L11 65049U 25162G 25354.18930547 -.00000094 00000+0 63678-4 0 9993
L22 65049 50.0039 187.6286 0000599 116.4779 243.6155 13.29325636 19555



Live tracking and technical data element details for HULIANWANG DIGUI-46 (NORAD 65049). HULIANWANG DIGUI-46 can be tracked NOW for your location showing map with azimuth and elevation plus other details from your city location.







IsCatalogInMostPopularTable: catalog: 65049, numindb: 3
Update: records affected: 1



GetName: 65049 HULIANWANG DIGUI-46

Hit Count: updated at: Sat, 11 Apr 2026 21:46:11 GMT